RH
38 39 41 40 42 46 38 36 31 22 18 16 10 9 10 8 8 16 10 11 29 42 50 57 64 62 61 54 58 60 38 31 36 39 40 38 41 38 37 42 37 43 48 53 74
35 32 36 40 40 39 36 32 29 22 18 15 11 9 10 7 18 18 6 11 26 48 57 56 54 56 61 54 50 42 38 41 26 28 37 37 36 40 41 40 48 57 59 68 74
28 27 28 36 39 34 30 29 26 21 17 14 11 10 9 11 25 10 6 17 38 52 59 58 55 51 47 46 49 44 38 38 29 25 32 35 39 36 37 42 40 53 61 63 67
22 21 21 31 30 24 20 18 19 17 14 12 13 10 8 19 12 16 11 24 33 48 51 52 47 43 39 42 43 38 36 36 26 30 33 36 35 35 35 36 34 47 53 58 59
17 17 17 24 25 22 18 14 12 12 11 13 13 10 18 16 13 18 12 27 39 25 37 40 37 40 38 40 39 37 34 29 26 31 32 34 36 33 38 38 43 51 55 54 53
16 14 14 17 22 23 20 15 11 11 12 11 13 18 27 18 18 17 12 18 16 25 34 39 30 34 35 40 38 36 29 27 28 31 32 34 37 33 39 38 45 52 53 50 51
16 14 13 14 18 23 21 17 12 12 13 11 11 22 19 14 18 15 11 12 12 32 35 34 24 23 35 39 40 36 30 28 29 30 34 31 38 34 38 38 44 47 49 50 51
16 15 13 13 15 23 18 16 14 14 14 13 14 22 8 15 18 11 11 13 12 25 41 26 22 34 40 41 36 40 40 33 32 29 32 28 36 32 37 39 44 44 46 48 48
17 15 13 12 13 22 19 15 14 15 14 14 26 24 8 20 21 15 16 17 22 27 26 20 22 38 35 36 39 42 47 44 41 35 30 31 37 33 35 36 39 41 42 44 44
16 16 13 11 12 21 21 25 16 24 19 33 39 19 14 15 17 16 17 18 15 11 9 13 20 30 40 34 34 38 40 38 47 39 39 36 34 33 36 35 35 37 38 39 39
16 14 12 10 18 21 24 30 23 20 28 7 12 13 15 15 15 15 17 16 9 8 12 12 16 22 24 36 34 36 37 31 33 38 41 42 44 36 33 36 36 35 35 36 35
15 13 11 9 25 20 23 23 19 22 22 20 19 17 17 16 12 14 14 12 11 13 9 10 17 15 19 31 33 30 31 31 32 40 41 42 40 36 31 34 32 33 34 32 31
20 13 11 10 28 25 26 20 24 28 20 16 17 15 12 12 11 13 12 10 10 10 9 13 13 12 12 11 13 17 24 29 32 45 42 44 40 42 37 30 30 30 29 29 30
21 14 11 9 34 34 33 26 28 27 20 18 15 12 12 11 12 11 10 9 9 10 9 9 8 9 10 11 20 22 33 33 36 36 36 42 28 38 36 37 31 30 29 29 29
19 15 11 9 17 31 26 27 21 16 24 17 14 11 10 11 10 11 9 7 9 9 9 10 10 11 10 10 27 22 28 33 40 39 40 39 38 26 40 40 37 30 28 27 27
18 16 10 16 23 23 24 23 16 19 26 17 10 12 11 10 10 10 10 8 9 9 11 9 9 10 8 10 25 19 16 25 35 38 28 31 32 16 24 27 29 33 30 26 26
18 12 11 13 20 25 27 18 18 22 18 15 14 10 11 12 11 10 12 12 12 13 12 11 9 10 10 10 10 11 10 14 16 21 18 32 42 21 18 19 26 28 33 30 26
17 18 17 12 18 25 22 20 22 21 23 20 20 11 11 11 11 11 13 14 13 12 14 12 9 11 10 9 10 11 10 13 20 16 14 27 21 14 12 10 23 30 29 29 28
22 34 31 37 26 25 21 21 19 25 21 22 18 13 12 11 11 13 13 12 11 12 14 16 14 11 11 9 9 12 12 10 12 16 13 11 12 9 9 14 31 33 34 34 31
30 31 29 33 26 24 23 25 27 24 22 21 22 18 15 16 12 12 14 13 12 12 10 15 16 12 11 9 9 10 10 11 14 19 19 14 16 10 10 9 13 31 34 36 35
32 27 25 35 26 24 26 28 28 22 22 22 22 22 22 21 18 13 14 21 22 14 12 12 13 13 12 12 12 11 11 13 11 13 16 16 12 12 17 22 20 19 23 31 33
34 28 24 34 29 42 33 33 30 18 18 16 20 20 22 21 20 19 22 28 30 16 15 14 13 17 13 13 12 11 11 12 14 19 16 16 12 9 12 18 21 13 22 24 28
39 34 25 28 31 31 28 24 19 18 21 19 21 22 23 24 26 22 26 28 30 30 25 15 18 21 18 15 13 14 12 12 12 14 16 16 12 10 12 14 15 19 16 26 36
38 28 29 38 44 28 28 25 21 25 25 22 24 25 26 28 34 32 34 30 31 35 44 26 21 23 20 19 19 22 17 13 12 15 14 15 13 11 12 14 11 14 18 28 36
54 57 59 35 36 36 32 30 28 31 30 28 27 29 33 31 35 40 37 32 30 38 35 29 32 24 22 21 25 25 21 19 17 16 17 14 13 13 19 21 20 22 30 36 37
51 46 52 54 52 33 44 49 42 40 39 32 34 33 29 40 44 43 41 36 36 31 33 34 38 40 35 29 28 28 25 23 22 19 16 15 15 29 38 34 37 40 42 42 42
98 89 48 69 47 31 59 57 51 47 37 38 42 39 31 42 42 39 37 35 35 37 31 33 38 42 37 34 34 35 27 22 21 36 31 20 30 48 43 45 54 61 60 58 50
Wind_Speed
17 17 15 13 12 11 10 8 7 5 4 4 3 4 4 5 6 2 4 2 5 13 12 8 3 2 3 2 1 2 3 4 5 8 6 9 8 5 2 11 8 3 8 11 17
18 19 18 15 12 10 9 8 7 5 4 3 3 4 6 8 1 5 2 5 7 12 7 4 3 4 2 2 1 1 3 4 3 8 11 12 12 8 8 11 4 7 14 17 17
18 19 20 18 14 10 8 8 7 4 2 1 1 4 6 7 2 1 5 7 11 11 4 3 3 3 1 1 3 1 3 2 2 11 19 15 8 4 14 9 10 14 17 17 15
18 18 19 17 15 10 7 6 5 3 1 1 1 3 5 2 2 1 7 11 11 7 5 2 2 1 3 4 4 2 6 3 8 12 15 16 11 8 6 2 7 18 18 17 14
19 18 18 16 16 9 6 4 2 2 0 1 2 3 1 1 1 2 11 11 10 5 3 1 4 1 5 3 2 8 7 4 12 13 14 13 8 8 3 7 15 15 15 15 14
19 20 19 17 15 9 5 4 2 1 0 0 2 2 1 2 4 1 12 11 7 5 2 1 5 4 2 3 5 6 11 12 11 13 11 10 7 6 3 12 15 15 15 14 15
20 20 19 17 15 8 5 2 2 2 1 1 2 2 1 2 3 5 11 7 3 2 2 1 2 1 1 2 4 3 12 10 7 7 4 13 4 1 13 15 16 15 14 14 15
20 21 20 17 14 6 3 1 2 2 2 1 2 1 1 3 2 7 8 5 6 6 3 7 4 4 3 1 3 3 2 2 5 5 7 4 2 4 16 16 17 16 14 14 16
21 22 20 17 15 3 1 3 3 2 3 2 2 2 2 0 3 7 8 2 2 3 3 4 3 3 1 3 2 4 2 1 1 3 6 6 1 9 16 16 15 16 15 15 15
22 22 20 18 15 1 4 3 4 3 2 2 0 2 2 2 4 6 9 4 2 2 2 3 2 2 1 2 2 2 2 2 3 2 4 6 10 8 17 17 17 17 16 16 16
23 22 20 19 11 5 9 5 2 2 1 2 0 1 2 1 6 3 4 4 1 2 4 2 4 6 5 4 2 1 2 6 3 5 6 10 9 10 17 17 18 17 17 18 18
23 22 19 18 5 8 6 2 2 2 3 2 4 4 5 2 3 3 6 5 2 5 1 3 5 7 2 3 4 7 8 9 7 1 6 5 11 12 18 23 22 20 19 20 19
24 21 18 16 2 5 3 2 4 2 1 1 3 3 2 7 4 9 9 3 3 4 5 6 3 5 2 2 5 5 7 3 2 3 2 4 9 7 10 16 19 19 18 17 19
26 20 16 13 3 2 3 4 8 7 1 2 3 2 4 4 2 1 6 3 2 7 3 5 0 4 2 3 2 4 2 2 5 2 2 3 5 4 8 14 20 21 20 20 19
27 19 14 9 2 3 3 5 6 2 2 2 3 1 2 4 5 2 1 2 4 5 4 2 2 5 4 2 3 3 3 3 3 2 4 3 4 2 2 9 18 21 22 22 20
26 19 13 4 5 3 2 3 2 2 3 3 3 5 6 1 2 3 5 3 3 4 0 3 2 3 2 2 3 8 4 6 4 1 4 1 4 4 4 5 4 14 21 22 20
24 17 8 6 1 2 2 3 2 2 1 2 2 3 5 4 4 4 8 9 4 4 4 1 7 3 3 4 4 4 1 2 3 3 6 4 5 10 14 10 10 9 16 20 22
17 4 3 4 2 1 3 2 3 1 1 2 2 3 6 7 3 3 7 8 4 2 0 3 5 8 6 13 6 5 5 4 5 5 8 2 5 5 7 10 8 10 14 15 19
4 6 4 8 5 2 2 3 2 2 1 1 3 3 4 3 2 4 6 5 7 14 6 4 3 2 3 1 2 5 5 1 2 2 4 4 5 12 14 8 5 6 4 12 16
3 3 6 5 6 1 2 2 1 2 3 1 2 1 4 5 7 6 6 2 2 10 8 5 3 0 2 4 6 3 8 3 1 6 11 3 4 8 14 16 9 5 3 9 12
1 2 9 1 3 3 2 1 2 1 2 1 2 2 2 2 3 4 3 4 4 2 5 6 5 4 3 4 4 3 3 3 0 3 10 11 6 6 8 7 6 6 5 5 11
2 2 12 2 2 1 2 0 4 4 7 3 3 3 1 1 2 2 3 1 9 3 5 4 2 4 7 2 3 2 8 6 6 5 2 4 13 5 8 6 7 11 10 9 9
2 1 7 2 3 2 1 2 5 4 6 5 3 4 2 2 2 2 2 0 7 3 2 6 3 4 3 4 3 4 3 4 3 2 12 11 11 1 3 7 7 11 10 9 7
1 2 4 4 2 3 2 2 3 5 4 3 3 2 2 2 5 2 2 3 5 5 5 4 3 6 10 7 2 5 4 4 7 6 14 11 19 13 15 10 13 13 12 8 8
5 2 2 2 4 5 1 2 2 2 5 7 3 6 2 0 1 1 1 3 1 7 2 1 4 3 6 7 4 8 10 9 9 14 12 18 19 14 9 11 12 14 14 11 10
2 1 2 3 2 1 5 3 2 3 5 3 3 6 3 1 2 1 4 0 2 3 2 2 1 1 5 7 7 10 12 14 14 15 15 19 22 5 11 9 11 14 15 14 11
5 2 2 3 2 1 2 2 2 4 2 5 5 4 3 2 7 8 8 10 5 5 3 2 2 2 12 4 10 13 11 13 12 3 5 11 7 10 11 11 13 15 14 15 15
Wind_Direction
9 3 355 343 334 328 321 321 315 328 330 340 322 317 330 321 309 263 236 143 160 156 154 144 181 151 181 151 181 193 84 110 139 174 142 146 127 140 119 139 132 56 135 132 147
10 5 358 348 336 327 319 312 308 321 330 348 330 320 337 328 335 249 163 157 148 161 139 177 245 179 215 127 131 346 65 56 159 166 156 159 150 146 148 154 124 98 107 137 151
8 6 1 359 344 329 320 306 304 312 333 12 339 322 342 331 218 126 155 152 152 150 137 229 255 240 154 129 23 42 49 1 14 181 153 151 146 137 152 184 187 169 151 156 163
8 5 2 360 353 343 332 316 308 316 327 109 57 336 339 354 139 66 156 147 151 153 182 216 287 27 51 57 23 67 10 352 120 141 148 155 141 142 161 307 184 156 158 159 173
6 6 3 358 354 348 346 359 349 348 37 94 51 7 356 181 19 308 168 159 167 188 173 100 44 330 42 29 76 38 12 63 122 133 137 140 150 156 216 126 136 146 163 171 181
3 3 -0 356 354 348 346 18 46 76 92 51 32 36 199 156 319 249 174 174 180 182 159 47 9 350 25 15 50 69 82 101 119 124 140 143 142 152 170 147 148 161 179 185 191
360 359 357 354 355 346 346 18 76 108 119 17 16 38 242 96 318 168 174 205 223 162 38 23 1 343 359 63 15 98 98 105 122 127 126 131 145 225 154 165 167 181 187 194 205
356 357 355 352 352 342 356 62 99 124 124 54 16 23 116 330 160 162 175 225 230 223 287 328 25 93 12 117 42 44 53 145 147 154 158 235 119 162 162 170 179 188 200 205 210
354 354 352 348 347 328 117 93 108 113 108 96 28 315 127 47 190 183 183 270 196 221 278 274 59 49 121 130 118 42 8 332 172 190 164 225 291 166 173 187 188 194 203 212 213
351 351 350 346 344 221 161 128 113 87 96 75 356 252 140 172 157 162 181 151 174 138 86 32 56 183 105 201 80 156 255 278 219 161 198 206 247 171 184 196 203 200 209 216 221
347 348 347 345 347 160 150 125 219 134 176 261 62 43 310 73 130 158 165 154 92 101 206 80 219 244 269 217 126 131 261 287 283 196 215 236 245 216 196 202 211 212 211 219 225
342 344 346 348 10 159 157 201 147 69 306 226 249 277 254 287 126 135 160 175 160 197 157 225 260 240 344 177 249 262 278 274 269 181 229 237 252 233 202 208 211 210 215 218 226
341 338 339 344 143 159 212 205 168 311 277 292 206 215 194 176 200 175 176 138 136 171 193 237 79 119 263 256 247 264 241 237 355 115 180 285 267 216 218 219 217 223 226 227 227
340 333 332 342 163 203 231 186 279 181 2 146 210 202 146 172 165 108 170 138 121 213 170 264 303 226 241 272 231 322 248 159 159 234 334 332 319 276 219 223 221 220 220 226 227
339 328 323 320 258 210 149 320 128 182 147 131 139 84 126 188 129 123 197 87 168 158 192 196 180 158 238 259 184 17 65 124 118 128 290 205 260 273 204 234 232 226 222 223 223
334 323 314 293 217 194 274 136 150 243 130 133 132 158 154 149 95 115 164 74 97 142 203 269 328 256 261 146 163 155 119 85 85 104 259 331 265 291 235 232 231 224 222 223 220
331 312 282 192 146 134 169 157 223 225 298 107 129 164 182 159 155 152 171 192 199 184 225 215 231 238 202 247 151 189 242 283 252 228 286 9 234 268 275 270 260 251 226 221 212
337 43 96 164 217 303 158 129 217 137 213 48 83 111 190 168 172 146 151 200 205 154 87 227 215 197 178 219 234 187 221 240 277 281 311 161 243 265 281 300 287 264 244 227 215
72 77 60 337 216 186 141 193 218 191 21 345 112 155 178 165 202 178 203 213 214 187 211 188 247 304 226 132 261 153 194 15 193 107 263 271 268 275 277 298 321 331 224 217 207
112 94 31 60 97 107 112 164 144 257 331 202 168 206 160 153 182 192 183 133 244 207 223 181 281 198 69 144 67 248 139 184 222 265 277 218 268 274 294 300 328 311 206 202 211
75 90 2 335 47 62 164 160 249 328 342 255 139 124 100 148 202 194 143 48 355 73 196 165 234 189 283 221 222 154 200 64 223 279 270 286 267 217 267 309 287 329 324 247 215
21 86 353 102 61 25 114 87 349 358 20 45 77 69 78 81 154 172 139 37 350 194 158 175 188 238 249 121 343 256 256 241 254 238 253 285 272 239 247 273 290 300 300 297 265
58 6 352 349 125 95 65 88 44 32 30 20 47 22 8 63 187 93 115 118 9 57 144 171 200 257 249 143 127 228 188 238 266 256 240 252 265 185 279 270 280 286 296 297 270
54 105 26 52 22 85 105 49 104 35 70 42 33 57 53 58 25 93 95 23 357 37 36 194 182 238 253 290 66 261 243 220 237 269 270 244 274 267 271 302 302 296 300 298 279
19 75 3 55 48 64 33 20 81 32 17 22 79 50 24 333 28 106 40 335 58 2 65 17 254 223 261 260 268 263 264 270 238 258 268 282 273 280 328 307 310 311 311 308 277
63 78 72 67 350 62 10 36 55 2 349 16 60 355 19 203 38 40 348 87 338 353 44 5 245 289 270 268 248 260 269 269 265 263 264 270 276 4 319 317 325 330 326 310 296
29 40 304 2 48 126 54 56 72 337 63 75 2 336 328 89 311 289 278 283 283 316 323 307 241 258 266 296 298 267 245 258 268 242 271 256 315 336 332 339 348 343 339 324 320